Weather History for KTRL - March, 2013

Change the Weather History Date:

Tuesday, March 12, 2013

  Actual Average (KDFW) Record (KDFW)
Temperature  
Mean Temperature 48 °F 57 °F  
Max Temperature 68 °F 67 °F 91 °F (1918)
Min Temperature 30 °F 46 °F 14 °F (1948)
Degree Days  
Heating Degree Days 17 9  
Month to date heating degree days 127  
Since 1 July heating degree days 2059  
Cooling Degree Days 0 1  
Month to date cooling degree days 10  
Year to date cooling degree days 17  
Moisture  
Dew Point 26 °F    
Average Humidity 45    
Maximum Humidity 85    
Minimum Humidity 19    
Precipitation  
Precipitation 0.00 in 0.11 in 1.63 in (1943)
Month to date precipitation 1.36  
Year to date precipitation 6.15  
Snow  
Snow 0.00 in 0.00 in T in (1970)
Month to date snowfall 0.1  
Since 1 July snowfall 1.1  
Snow Depth -    
Sea Level Pressure  
Sea Level Pressure 30.17 in    
Wind  
Wind Speed 3 mph (NE)    
Max Wind Speed 10 mph    
Max Gust Speed -    
Visibility 10 miles    
Events      
T = Trace of Precipitation, MM = Missing Value Source: NWS Daily Summary

Daily Weather History Graph

Daily Weather History Graph

Search for Another Location

Airport or City:

Trip Planner

Search our weather history database for the weather conditions in past years. The results will help you decide how hot, cold, wet, or windy it might be!

Date:

Astronomy

Mar. 12, 2013 Rise Set
Actual Time 7:38 AM CDT 7:31 PM CDT
Civil Twilight 7:14 AM CDT 7:55 PM CDT
Nautical Twilight 6:45 AM CDT 8:24 PM CDT
Astronomical Twilight 6:17 AM CDT 8:52 PM CDT
Moon 7:51 AM CDT (3/12) 8:40 PM CDT (3/12)
Length of Visible Light 12h 41m
Length of Day
11h 52m
New Moon, 1% of the Moon is Illuminated
Mar 12
New Moon
Mar 19
First Quarter
Mar 27
Full
Apr 2
Last Quarter
Apr 10
New

Hourly Weather History & Observations

Time (CDT) Temp. Windchill Dew Point Humidity Pressure Visibility Wind Dir Wind Speed Gust Speed Precip Events Conditions
12:53 AM 39.9 °F - 27.0 °F 60% 30.08 in 10.0 mi Calm Calm - N/A   Clear
1:53 AM 39.0 °F - 26.1 °F 60% 30.07 in 10.0 mi Calm Calm - N/A   Clear
2:53 AM 37.9 °F 35.5 °F 26.1 °F 62% 30.08 in 10.0 mi SW 3.5 mph - N/A   Clear
3:53 AM 35.1 °F - 27.0 °F 72% 30.07 in 10.0 mi Calm Calm - N/A   Clear
4:53 AM 35.1 °F - 27.0 °F 72% 30.07 in 10.0 mi Calm Calm - N/A   Clear
5:53 AM 33.1 °F - 27.0 °F 78% 30.09 in 10.0 mi Calm Calm - N/A   Clear
6:53 AM 34.0 °F - 27.0 °F 75% 30.13 in 10.0 mi Calm Calm - N/A   Clear
7:53 AM 30.9 °F 26.2 °F 27.0 °F 85% 30.14 in 10.0 mi NE 4.6 mph - N/A   Clear
8:53 AM 42.1 °F - 30.9 °F 65% 30.17 in 10.0 mi Calm Calm - N/A   Clear
9:53 AM 51.1 °F - 30.0 °F 44% 30.21 in 10.0 mi East 5.8 mph - N/A   Clear
10:53 AM 55.9 °F - 23.0 °F 28% 30.23 in 10.0 mi East 9.2 mph - N/A   Clear
11:53 AM 59.0 °F - 23.0 °F 25% 30.24 in 10.0 mi East 9.2 mph - N/A   Clear
12:53 PM 62.1 °F - 25.0 °F 24% 30.21 in 10.0 mi East 10.4 mph - N/A   Clear
1:53 PM 64.0 °F - 24.1 °F 22% 30.19 in 10.0 mi East 10.4 mph - N/A   Clear
2:53 PM 66.9 °F - 23.0 °F 19% 30.17 in 10.0 mi East 3.5 mph - N/A   Clear
3:53 PM 66.9 °F - 25.0 °F 21% 30.17 in 10.0 mi NE 6.9 mph - N/A   Clear
4:53 PM 66.9 °F - 24.1 °F 20% 30.18 in 10.0 mi North 9.2 mph - N/A   Clear
5:53 PM 66.9 °F - 25.0 °F 21% 30.18 in 10.0 mi NNE 6.9 mph - N/A   Clear
6:53 PM 63.0 °F - 27.0 °F 26% 30.20 in 10.0 mi NNE 10.4 mph - N/A   Clear
7:53 PM 60.1 °F - 28.0 °F 30% 30.22 in 10.0 mi North 6.9 mph - N/A   Clear
8:53 PM 57.0 °F - 28.0 °F 33% 30.25 in 10.0 mi North 4.6 mph - N/A   Clear
9:53 PM 54.0 °F - 28.0 °F 37% 30.27 in 10.0 mi Calm Calm - N/A   Clear
11:53 PM 48.9 °F - 30.0 °F 48% 30.31 in 10.0 mi Calm Calm - N/A   Clear